Flag for Portugal Weather past 2 weeks in Viana do Castelo, Portugal

Now
52 °F

Fog.


Feels Like: 52 °F
Forecast: 52 / 68 °F
Wind: No wind

Location: Porto / Pedras Rubras


UV Index: 5 (Moderate)

Visibility: 2 mi


Pressure: 30.09 "Hg

Humidity: 100%

Dew point: 52 °F

Location of Viana do CasteloLocation

Historic Weather in Viana do Castelo

°F

Viana do Castelo temperature yesterday

Maximum temperature yesterday: 64 °F (at 10:30 AM)
Minimum temperature yesterday: 52 °F (at 6:30 AM)
Average temperature yesterday: 60 °F

Past Weeks' High & Low Weather Summary

 TemperatureHumidityPressure
High81 °F (Apr 9, 2:30 PM)100% (Apr 3, 5:30 AM)30.21 "Hg (Apr 3, 5:30 AM)
Low48 °F (Apr 3, 4:00 AM)42% (Apr 9, 2:30 PM)29.45 "Hg (Apr 2, 6:00 AM)
Average59 °F85%29.99 "Hg
* Reported Apr 2 5:00 AM — Apr 17 5:00 AM, Viana do Castelo, Weather by CustomWeather, © 2014

Note: Actual official high and low records may vary slightly from our data, if they occured in-between our weather recording intervals... More about our weather records

Advertising

Historic Weather Conditions — Data for Previous 24 hours

 ConditionsComfort  
Time TempWeatherWind HumidityBarometerVisibility
5:00 AM
Apr 17
52 °FFog.No wind100%30.09 "Hg2 mi
4:30 AM54 °FPassing clouds.1 mph94%30.09 "Hg4 mi
4:00 AM54 °FClear.2 mph100%30.09 "Hg4 mi
3:30 AM54 °FClear.2 mph94%30.09 "Hg4 mi
3:00 AM55 °FPassing clouds.2 mph94%30.09 "Hg5 mi
2:30 AM55 °FPassing clouds.2 mph94%30.12 "Hg5 mi
2:00 AM57 °FPassing clouds.2 mph88%30.12 "Hg6 mi
1:30 AM57 °FPassing clouds.3 mph94%30.12 "HgN/A
1:00 AM59 °FPassing clouds.1 mph88%30.12 "HgN/A
12:30 AM61 °FPassing clouds.2 mph83%30.12 "HgN/A
12:00 AM61 °FPassing clouds.3 mph83%30.12 "HgN/A
11:30 PM
Apr 16
61 °FPassing clouds.5 mph83%30.12 "HgN/A
11:00 PM61 °FPassing clouds.3 mph83%30.12 "HgN/A
10:30 PM61 °FPassing clouds.3 mph83%30.15 "HgN/A
10:00 PM59 °FPassing clouds.6 mph88%30.15 "HgN/A
9:30 PM59 °FPassing clouds.9 mph88%30.12 "HgN/A
9:00 PM61 °FPartly sunny.6 mph83%30.12 "HgN/A
8:30 PM61 °FPartly sunny.8 mph88%30.12 "Hg5 mi
8:00 PM61 °FPartly sunny.7 mph88%30.09 "Hg6 mi
7:30 PM63 °FPartly sunny.8 mph83%30.09 "Hg6 mi
7:00 PM63 °FPartly sunny.7 mph83%30.09 "Hg6 mi
6:30 PM63 °FPartly sunny.8 mph83%30.09 "Hg5 mi
6:00 PM63 °FPartly sunny.8 mph83%30.09 "Hg6 mi
5:30 PM61 °FBroken clouds.9 mph88%30.09 "Hg6 mi
5:00 PM63 °FPartly sunny.10 mph83%30.09 "Hg6 mi
4:30 PM64 °FPassing clouds.10 mph78%30.09 "Hg6 mi
4:00 PM64 °FPassing clouds.9 mph78%30.09 "Hg6 mi
3:30 PM64 °FPassing clouds.8 mph78%30.09 "Hg6 mi
3:00 PM64 °FPassing clouds.7 mph83%30.09 "HgN/A
2:00 PM63 °FScattered clouds.7 mph88%30.09 "Hg6 mi
1:30 PM64 °FScattered clouds.6 mph83%30.09 "Hg6 mi
1:00 PM64 °FScattered clouds.6 mph83%30.09 "Hg6 mi
12:30 PM64 °FScattered clouds.6 mph83%30.09 "Hg5 mi
12:00 PM64 °FScattered clouds.6 mph83%30.09 "Hg5 mi
11:30 AM64 °FScattered clouds.6 mph83%30.09 "Hg6 mi
11:00 AM64 °FScattered clouds.5 mph83%30.09 "Hg6 mi
10:30 AM64 °FScattered clouds.3 mph83%30.09 "Hg4 mi
10:00 AM63 °FScattered clouds.3 mph88%30.09 "Hg4 mi
9:30 AM61 °FPassing clouds.2 mph88%30.07 "Hg4 mi
9:00 AM61 °FPassing clouds.2 mph94%30.07 "Hg4 mi
8:30 AM59 °FFog.3 mph94%30.07 "Hg3 mi
8:00 AM55 °FFog.3 mph100%30.07 "Hg2 mi
7:30 AM54 °FFog.2 mph100%30.07 "Hg2 mi
7:00 AM54 °FFog.3 mph100%30.04 "Hg2 mi
6:30 AM52 °FFog.2 mph100%30.04 "Hg3 mi
6:00 AM54 °FFog.No wind94%30.04 "Hg2 mi
5:30 AM54 °FFog.No wind100%30.04 "Hg1 mi
5:00 AM54 °FFog.No wind94%30.04 "Hg3 mi
Weather by CustomWeather, © 2014

See weather overview